RYR84KM EGGW-LEMI

Flight info

Callsign RYR84KM
Flight time 2h 18m
Altitude 37000
Route RODNI N27 ICTAM Q63 CPT UN859 SOPIL DCT BALAN DCT LMG DCT PIMQO DCT AGN DCT ANETO N860 VLC L34 ALT
Aircraft B738/M-SDE3FGILRWY/SB1

Departure

Time 2026-04-30 18:54
Airport London Luton Airport (EGGW)

Arrival

Time 2026-04-30 21:12
Airport Region of Murcia International Airport (LEMI)
Time Latitude Longitude Altitude Speed Heading
2026-04-30 18:19 51.87960 -0.37902 521 ft 0 kts 128°
2026-04-30 18:46 51.87969 -0.37920 521 ft 2 kts 128°
2026-04-30 18:46 51.87978 -0.37939 521 ft 2 kts 128°
2026-04-30 18:47 51.87986 -0.37956 521 ft 1 kts 139°
2026-04-30 18:47 51.87996 -0.37960 521 ft 1 kts 202°
2026-04-30 18:47 51.88000 -0.37955 521 ft 1 kts 226°
2026-04-30 18:47 51.88003 -0.37950 521 ft 0 kts 219°
2026-04-30 18:49 51.87991 -0.37967 521 ft 7 kts 216°
2026-04-30 18:49 51.87913 -0.38011 521 ft 14 kts 184°
2026-04-30 18:50 51.87818 -0.37943 521 ft 18 kts 133°
2026-04-30 18:50 51.87760 -0.37768 521 ft 17 kts 115°
2026-04-30 18:50 51.87712 -0.37598 521 ft 16 kts 115°
2026-04-30 18:50 51.87640 -0.37469 521 ft 14 kts 156°
2026-04-30 18:51 51.87585 -0.37457 522 ft 0 kts 188°
2026-04-30 18:51 51.87544 -0.37476 522 ft 14 kts 208°
2026-04-30 18:51 51.87484 -0.37662 523 ft 19 kts 254°
2026-04-30 18:51 51.87444 -0.37890 522 ft 24 kts 253°
2026-04-30 18:52 51.87334 -0.38081 519 ft 24 kts 197°
2026-04-30 18:52 51.87241 -0.38257 516 ft 18 kts 270°
2026-04-30 18:52 51.87210 -0.38265 515 ft 8 kts 65°
2026-04-30 18:52 51.87226 -0.38194 517 ft 5 kts 73°
2026-04-30 18:53 51.87237 -0.38133 518 ft 10 kts 74°
2026-04-30 18:53 51.87279 -0.37905 522 ft 41 kts 74°
2026-04-30 18:53 51.87420 -0.37100 523 ft 97 kts 76°
2026-04-30 18:53 51.87663 -0.35732 519 ft 159 kts 75°
2026-04-30 18:54 51.87973 -0.34009 1275 ft 161 kts 79°
2026-04-30 18:54 51.88332 -0.32337 2169 ft 163 kts 76°
2026-04-30 18:54 51.88794 -0.30604 2684 ft 177 kts 74°
2026-04-30 18:54 51.89291 -0.28722 3209 ft 192 kts 75°
2026-04-30 18:55 51.89833 -0.26634 3723 ft 209 kts 74°
2026-04-30 18:55 51.90745 -0.21921 3999 ft 226 kts 98°
2026-04-30 18:55 51.90150 -0.19655 3967 ft 218 kts 136°
2026-04-30 18:56 51.87303 -0.19363 4254 ft 239 kts 214°
2026-04-30 18:56 51.86321 -0.21627 4800 ft 266 kts 243°
2026-04-30 18:56 51.85804 -0.24626 4588 ft 285 kts 254°
2026-04-30 18:57 51.84760 -0.30911 6237 ft 286 kts 249°
2026-04-30 18:57 51.84167 -0.33920 7223 ft 284 kts 249°
2026-04-30 18:57 51.83580 -0.36959 8056 ft 289 kts 249°
2026-04-30 18:58 51.82435 -0.43217 9676 ft 297 kts 250°
2026-04-30 18:58 51.81862 -0.46429 10456 ft 301 kts 250°
2026-04-30 18:58 51.81276 -0.49705 11204 ft 305 kts 250°
2026-04-30 18:59 51.80040 -0.56546 11950 ft 339 kts 250°
2026-04-30 19:00 51.77980 -0.67930 13980 ft 361 kts 250°
2026-04-30 19:00 51.77270 -0.71852 14710 ft 365 kts 250°
2026-04-30 19:00 51.75472 -0.79454 16124 ft 366 kts 234°
2026-04-30 19:01 51.72143 -0.85652 17439 ft 366 kts 221°
2026-04-30 19:01 51.70332 -0.88469 18120 ft 368 kts 220°
2026-04-30 19:02 51.66597 -0.94218 19439 ft 374 kts 220°
2026-04-30 19:02 51.62882 -1.00076 20710 ft 380 kts 220°
2026-04-30 19:03 51.59102 -1.06099 21864 ft 387 kts 220°
2026-04-30 19:03 51.55264 -1.12222 23075 ft 391 kts 220°
2026-04-30 19:04 51.51358 -1.18326 24156 ft 395 kts 217°
2026-04-30 19:04 51.46747 -1.22900 25134 ft 391 kts 198°
2026-04-30 19:05 51.41468 -1.24838 26231 ft 388 kts 184°
2026-04-30 19:05 51.36189 -1.24651 27449 ft 381 kts 167°
2026-04-30 19:06 51.31221 -1.21876 28593 ft 378 kts 153°
2026-04-30 19:06 51.28955 -1.19825 29089 ft 378 kts 146°
2026-04-30 19:06 51.24941 -1.14477 30030 ft 379 kts 135°
2026-04-30 19:07 51.21774 -1.07767 30941 ft 379 kts 127°
2026-04-30 19:07 51.20162 -1.04473 31381 ft 377 kts 133°
2026-04-30 19:08 51.16251 -0.98867 31499 ft 378 kts 146°
2026-04-30 19:08 51.11744 -0.94686 31505 ft 375 kts 153°
2026-04-30 19:09 51.04641 -0.89386 31498 ft 375 kts 155°
2026-04-30 19:09 50.99905 -0.85995 31496 ft 374 kts 155°
2026-04-30 19:10 50.95131 -0.82577 31642 ft 380 kts 155°
2026-04-30 19:10 50.90246 -0.79073 31821 ft 395 kts 155°
2026-04-30 19:11 50.82623 -0.72989 32176 ft 416 kts 148°
2026-04-30 19:11 50.80183 -0.70562 32567 ft 416 kts 146°
2026-04-30 19:12 50.77761 -0.68058 33008 ft 415 kts 146°
2026-04-30 19:12 50.75366 -0.65557 33464 ft 414 kts 146°
2026-04-30 19:12 50.72984 -0.63074 33882 ft 413 kts 146°
2026-04-30 19:13 50.68190 -0.58126 34575 ft 413 kts 146°
2026-04-30 19:13 50.63368 -0.53211 35122 ft 415 kts 147°
2026-04-30 19:14 50.58485 -0.48271 35145 ft 414 kts 147°
2026-04-30 19:14 50.53699 -0.43454 35146 ft 412 kts 147°
2026-04-30 19:15 50.48864 -0.38602 35141 ft 413 kts 146°
2026-04-30 19:15 50.41579 -0.31313 35144 ft 413 kts 147°
2026-04-30 19:16 50.36742 -0.26414 35137 ft 413 kts 142°
2026-04-30 19:17 50.30154 -0.17811 35144 ft 413 kts 148°
2026-04-30 19:17 50.22381 -0.12216 35144 ft 414 kts 160°
2026-04-30 19:18 50.14715 -0.06173 35139 ft 412 kts 142°
2026-04-30 19:19 50.10143 -0.00819 35136 ft 414 kts 147°
2026-04-30 19:19 50.02227 0.04335 35136 ft 416 kts 165°
2026-04-30 19:20 49.96532 0.06117 35135 ft 417 kts 167°
2026-04-30 19:21 49.88063 0.08853 35136 ft 415 kts 165°
2026-04-30 19:22 49.76751 0.13066 35125 ft 419 kts 164°
2026-04-30 19:23 49.59783 0.19739 35121 ft 420 kts 163°
2026-04-30 19:24 49.51305 0.23167 35119 ft 421 kts 163°
2026-04-30 19:25 49.37134 0.28845 35123 ft 423 kts 163°
2026-04-30 19:26 49.25744 0.33453 35116 ft 424 kts 163°
2026-04-30 19:27 49.17265 0.37051 35116 ft 422 kts 163°
2026-04-30 19:28 49.08753 0.40647 35113 ft 424 kts 163°
2026-04-30 19:29 48.97368 0.45412 35114 ft 426 kts 163°
2026-04-30 19:30 48.85934 0.50167 35117 ft 425 kts 163°
2026-04-30 19:31 48.74541 0.54838 35125 ft 423 kts 163°
2026-04-30 19:31 48.65976 0.58177 35123 ft 425 kts 164°
2026-04-30 19:32 48.60292 0.60383 35121 ft 425 kts 164°
2026-04-30 19:32 48.54583 0.62601 35126 ft 424 kts 163°
2026-04-30 19:33 48.48875 0.64842 35131 ft 424 kts 163°
2026-04-30 19:33 48.43139 0.67174 35131 ft 425 kts 163°
2026-04-30 19:34 48.37485 0.69485 35131 ft 424 kts 163°
2026-04-30 19:35 48.28876 0.72986 35133 ft 425 kts 164°
2026-04-30 19:35 48.23187 0.75280 35130 ft 425 kts 164°
2026-04-30 19:36 48.17515 0.77522 35133 ft 424 kts 164°
2026-04-30 19:36 48.08942 0.80878 35135 ft 425 kts 164°
2026-04-30 19:37 48.03245 0.83105 35135 ft 425 kts 164°
2026-04-30 19:37 47.97488 0.85353 35132 ft 427 kts 164°
2026-04-30 19:38 47.91771 0.87580 35136 ft 427 kts 164°
2026-04-30 19:38 47.86028 0.89813 35133 ft 426 kts 164°
2026-04-30 19:39 47.80262 0.92051 35133 ft 426 kts 164°
2026-04-30 19:39 47.74549 0.94263 35132 ft 426 kts 164°
2026-04-30 19:40 47.68823 0.96476 35133 ft 425 kts 164°
2026-04-30 19:40 47.63096 0.98684 35133 ft 427 kts 164°
2026-04-30 19:41 47.57345 1.00895 35133 ft 426 kts 164°
2026-04-30 19:41 47.51636 1.03085 35132 ft 426 kts 164°
2026-04-30 19:42 47.45911 1.05227 35132 ft 425 kts 166°
2026-04-30 19:42 47.40067 1.06439 35133 ft 427 kts 175°
2026-04-30 19:43 47.34079 1.06500 35132 ft 428 kts 179°
2026-04-30 19:44 47.25186 1.06152 35131 ft 428 kts 180°
2026-04-30 19:44 47.19220 1.05942 35133 ft 429 kts 179°
2026-04-30 19:45 47.13260 1.05766 35132 ft 429 kts 179°
2026-04-30 19:45 47.07315 1.05548 35133 ft 428 kts 180°
2026-04-30 19:46 47.01349 1.05299 35128 ft 428 kts 180°
2026-04-30 19:46 46.95424 1.05054 35126 ft 429 kts 180°
2026-04-30 19:47 46.89461 1.04814 35125 ft 427 kts 180°
2026-04-30 19:47 46.83508 1.04577 35113 ft 428 kts 180°
2026-04-30 19:48 46.77590 1.04345 35133 ft 427 kts 180°
2026-04-30 19:48 46.71646 1.04113 35122 ft 426 kts 180°
2026-04-30 19:49 46.65723 1.03882 35114 ft 426 kts 181°
2026-04-30 19:49 46.56796 1.03535 35369 ft 428 kts 181°
2026-04-30 19:50 46.53858 1.03418 35600 ft 430 kts 181°
2026-04-30 19:50 46.50808 1.03300 35590 ft 434 kts 180°
2026-04-30 19:50 46.47831 1.03225 36049 ft 427 kts 180°
2026-04-30 19:50 46.44905 1.03187 36538 ft 421 kts 180°
2026-04-30 19:51 46.41953 1.03163 36836 ft 422 kts 180°
2026-04-30 19:51 46.39042 1.03145 37054 ft 424 kts 180°
2026-04-30 19:51 46.33115 1.03105 37127 ft 428 kts 180°
2026-04-30 19:52 46.27163 1.03052 37128 ft 427 kts 180°
2026-04-30 19:52 46.21219 1.02992 37111 ft 427 kts 181°
2026-04-30 19:53 46.15281 1.02928 37128 ft 432 kts 181°
2026-04-30 19:53 46.09208 1.02860 37116 ft 440 kts 181°
2026-04-30 19:54 46.03066 1.02791 37131 ft 449 kts 181°
2026-04-30 19:54 45.96783 1.02360 37135 ft 453 kts 187°
2026-04-30 19:55 45.90559 1.01196 37137 ft 451 kts 189°
2026-04-30 19:55 45.84322 0.99918 37137 ft 455 kts 189°
2026-04-30 19:56 45.78041 0.98685 37137 ft 456 kts 188°
2026-04-30 19:56 45.71773 0.97513 37133 ft 455 kts 188°
2026-04-30 19:57 45.65492 0.96375 37127 ft 455 kts 188°
2026-04-30 19:57 45.59249 0.95263 37123 ft 454 kts 188°
2026-04-30 19:58 45.52992 0.94159 37125 ft 454 kts 188°
2026-04-30 19:58 45.46704 0.93054 37124 ft 456 kts 188°
2026-04-30 19:59 45.40434 0.91956 37118 ft 455 kts 189°
2026-04-30 20:00 45.30986 0.90308 37124 ft 456 kts 189°
2026-04-30 20:00 45.24716 0.89216 37127 ft 456 kts 189°
2026-04-30 20:01 45.15254 0.87572 37127 ft 458 kts 189°
2026-04-30 20:01 45.08949 0.86479 37124 ft 459 kts 190°
2026-04-30 20:02 44.99471 0.84844 37128 ft 460 kts 190°
2026-04-30 20:03 44.90009 0.83215 37116 ft 459 kts 190°
2026-04-30 20:03 44.83604 0.82116 37118 ft 458 kts 190°
2026-04-30 20:04 44.77237 0.81026 37122 ft 459 kts 191°
2026-04-30 20:05 44.67754 0.79406 37116 ft 459 kts 191°
2026-04-30 20:05 44.58267 0.77791 37134 ft 460 kts 191°
2026-04-30 20:06 44.51949 0.76719 37125 ft 459 kts 191°
2026-04-30 20:06 44.45594 0.75644 37131 ft 458 kts 191°
2026-04-30 20:07 44.39280 0.74576 37131 ft 458 kts 191°
2026-04-30 20:08 44.29794 0.72978 37130 ft 458 kts 191°
2026-04-30 20:08 44.23492 0.71919 37137 ft 458 kts 191°
2026-04-30 20:09 44.17171 0.70859 37135 ft 458 kts 191°
2026-04-30 20:09 44.07667 0.69270 37132 ft 458 kts 192°
2026-04-30 20:10 43.98220 0.67694 37127 ft 458 kts 192°
2026-04-30 20:11 43.88723 0.66117 37129 ft 458 kts 192°
2026-04-30 20:11 43.82419 0.65071 37128 ft 457 kts 192°
2026-04-30 20:12 43.72935 0.63503 37132 ft 457 kts 192°
2026-04-30 20:13 43.66658 0.62469 36870 ft 452 kts 192°
2026-04-30 20:13 43.63575 0.61967 36556 ft 442 kts 192°
2026-04-30 20:13 43.60545 0.61477 36250 ft 432 kts 192°
2026-04-30 20:13 43.57619 0.61004 36129 ft 420 kts 192°
2026-04-30 20:14 43.54744 0.60537 36133 ft 416 kts 192°
2026-04-30 20:14 43.48950 0.59574 36136 ft 424 kts 192°
2026-04-30 20:15 43.43031 0.58587 36137 ft 435 kts 192°
2026-04-30 20:15 43.36957 0.57586 36139 ft 446 kts 192°
2026-04-30 20:16 43.30735 0.56568 36142 ft 456 kts 192°
2026-04-30 20:16 43.24391 0.55536 36147 ft 459 kts 192°
2026-04-30 20:17 43.18091 0.54521 36155 ft 456 kts 192°
2026-04-30 20:17 43.11823 0.53512 36489 ft 457 kts 192°
2026-04-30 20:17 43.08669 0.53004 36350 ft 452 kts 191°
2026-04-30 20:18 43.05537 0.52502 36213 ft 454 kts 192°
2026-04-30 20:18 42.99278 0.51495 36163 ft 454 kts 192°
2026-04-30 20:19 42.92984 0.50480 36171 ft 455 kts 192°
2026-04-30 20:19 42.86684 0.49467 36179 ft 454 kts 191°
2026-04-30 20:20 42.80404 0.48459 36195 ft 454 kts 191°
2026-04-30 20:20 42.74119 0.47453 36204 ft 453 kts 191°
2026-04-30 20:21 42.67897 0.46459 36202 ft 453 kts 191°
2026-04-30 20:21 42.61615 0.45460 36190 ft 452 kts 191°
2026-04-30 20:22 42.55367 0.44467 36178 ft 452 kts 191°
2026-04-30 20:22 42.49135 0.43481 36171 ft 452 kts 191°
2026-04-30 20:23 42.42866 0.42490 36161 ft 453 kts 191°
2026-04-30 20:23 42.36637 0.41508 36159 ft 452 kts 191°
2026-04-30 20:24 42.30402 0.40526 36142 ft 452 kts 191°
2026-04-30 20:24 42.24167 0.39547 36133 ft 451 kts 191°
2026-04-30 20:25 42.14846 0.38086 36126 ft 452 kts 190°
2026-04-30 20:26 42.05459 0.36617 36113 ft 452 kts 190°
2026-04-30 20:26 41.96109 0.35159 36110 ft 451 kts 190°
2026-04-30 20:27 41.83615 0.33216 36098 ft 450 kts 189°
2026-04-30 20:28 41.71205 0.31171 36093 ft 450 kts 192°
2026-04-30 20:30 41.55868 0.27232 36091 ft 449 kts 193°
2026-04-30 20:31 41.37453 0.22574 36076 ft 448 kts 193°
2026-04-30 20:32 41.22154 0.18796 36071 ft 447 kts 193°
2026-04-30 20:33 41.12971 0.16514 36075 ft 447 kts 194°
2026-04-30 20:34 41.04027 0.13200 36076 ft 446 kts 199°
2026-04-30 20:35 40.95131 0.09461 36088 ft 446 kts 199°
2026-04-30 20:35 40.86251 0.05814 36101 ft 443 kts 199°
2026-04-30 20:36 40.80390 0.03445 36104 ft 443 kts 199°
2026-04-30 20:37 40.71590 -0.00083 36110 ft 441 kts 199°
2026-04-30 20:37 40.65725 -0.02423 36115 ft 441 kts 199°
2026-04-30 20:38 40.59843 -0.04766 36121 ft 441 kts 199°
2026-04-30 20:38 40.53974 -0.07099 36131 ft 440 kts 199°
2026-04-30 20:39 40.45228 -0.10568 36138 ft 438 kts 200°
2026-04-30 20:40 40.36510 -0.14014 36129 ft 436 kts 200°
2026-04-30 20:40 40.33592 -0.15165 35958 ft 433 kts 200°
2026-04-30 20:40 40.30736 -0.16292 36117 ft 435 kts 200°
2026-04-30 20:41 40.21969 -0.19749 36129 ft 436 kts 200°
2026-04-30 20:41 40.16164 -0.22030 36119 ft 436 kts 200°
2026-04-30 20:42 40.10336 -0.24315 36112 ft 435 kts 200°
2026-04-30 20:43 40.01667 -0.27704 36110 ft 434 kts 200°
2026-04-30 20:43 39.95888 -0.29959 36107 ft 434 kts 200°
2026-04-30 20:44 39.87170 -0.33353 36108 ft 434 kts 200°
2026-04-30 20:45 39.75580 -0.37855 36111 ft 434 kts 200°
2026-04-30 20:45 39.69806 -0.40091 36104 ft 433 kts 200°
2026-04-30 20:46 39.61290 -0.43375 36095 ft 405 kts 200°
2026-04-30 20:46 39.58632 -0.44395 35935 ft 395 kts 200°
2026-04-30 20:47 39.53443 -0.46394 35181 ft 384 kts 200°
2026-04-30 20:47 39.50899 -0.47357 34760 ft 381 kts 200°
2026-04-30 20:48 39.45748 -0.48629 33855 ft 378 kts 190°
2026-04-30 20:48 39.43108 -0.48883 33284 ft 378 kts 188°
2026-04-30 20:48 39.40477 -0.49051 32594 ft 380 kts 187°
2026-04-30 20:48 39.37855 -0.49196 32015 ft 379 kts 187°
2026-04-30 20:49 39.35257 -0.49343 31507 ft 375 kts 187°
2026-04-30 20:49 39.32664 -0.49499 30975 ft 373 kts 187°
2026-04-30 20:49 39.30055 -0.49667 30388 ft 373 kts 187°
2026-04-30 20:50 39.24912 -0.50021 29371 ft 368 kts 186°
2026-04-30 20:50 39.22346 -0.50203 28839 ft 367 kts 186°
2026-04-30 20:50 39.19811 -0.50384 28254 ft 367 kts 186°
2026-04-30 20:50 39.17272 -0.50567 27793 ft 363 kts 186°
2026-04-30 20:51 39.14789 -0.50746 27356 ft 359 kts 186°
2026-04-30 20:51 39.09845 -0.51103 26483 ft 351 kts 186°
2026-04-30 20:51 39.07418 -0.51279 26042 ft 348 kts 186°
2026-04-30 20:52 39.05020 -0.51452 25443 ft 350 kts 186°
2026-04-30 20:52 39.02609 -0.51627 24982 ft 347 kts 186°
2026-04-30 20:52 38.97855 -0.51970 24123 ft 339 kts 185°
2026-04-30 20:53 38.95512 -0.52139 23702 ft 335 kts 185°
2026-04-30 20:53 38.93185 -0.52306 23291 ft 332 kts 186°
2026-04-30 20:53 38.90900 -0.52471 22891 ft 328 kts 185°
2026-04-30 20:54 38.86356 -0.52798 22085 ft 323 kts 185°
2026-04-30 20:54 38.84140 -0.52957 21689 ft 320 kts 185°
2026-04-30 20:54 38.81939 -0.53115 21290 ft 317 kts 185°
2026-04-30 20:55 38.77577 -0.53428 20504 ft 312 kts 185°
2026-04-30 20:55 38.75404 -0.53583 20111 ft 310 kts 185°
2026-04-30 20:55 38.73259 -0.53736 19719 ft 307 kts 185°
2026-04-30 20:56 38.69005 -0.54040 18939 ft 303 kts 184°
2026-04-30 20:56 38.66906 -0.54189 18577 ft 300 kts 184°
2026-04-30 20:56 38.62787 -0.54480 17874 ft 294 kts 184°
2026-04-30 20:57 38.60770 -0.54622 17495 ft 293 kts 184°
2026-04-30 20:57 38.58735 -0.54766 17105 ft 291 kts 184°
2026-04-30 20:57 38.56722 -0.54910 16716 ft 290 kts 184°
2026-04-30 20:58 38.52711 -0.55194 15951 ft 287 kts 184°
2026-04-30 20:58 38.50719 -0.55335 15576 ft 285 kts 184°
2026-04-30 20:58 38.48754 -0.55475 15201 ft 283 kts 184°
2026-04-30 20:58 38.46785 -0.55614 14833 ft 281 kts 185°
2026-04-30 20:59 38.42907 -0.55888 14093 ft 278 kts 184°
2026-04-30 20:59 38.40979 -0.56024 13733 ft 276 kts 184°
2026-04-30 21:00 38.37165 -0.56290 13003 ft 273 kts 184°
2026-04-30 21:00 38.33407 -0.56551 12288 ft 269 kts 184°
2026-04-30 21:01 38.29672 -0.56817 11582 ft 266 kts 185°
2026-04-30 21:01 38.27846 -0.57163 11229 ft 272 kts 198°
2026-04-30 21:01 38.24966 -0.60239 10942 ft 273 kts 235°
2026-04-30 21:02 38.23920 -0.62212 10613 ft 271 kts 236°
2026-04-30 21:02 38.22859 -0.64186 10249 ft 271 kts 234°
2026-04-30 21:02 38.21605 -0.66010 9669 ft 281 kts 218°
2026-04-30 21:02 38.19848 -0.67182 9016 ft 289 kts 198°
2026-04-30 21:03 38.17911 -0.67854 8370 ft 296 kts 193°
2026-04-30 21:03 38.15879 -0.68473 7700 ft 303 kts 194°
2026-04-30 21:03 38.13868 -0.69387 7021 ft 309 kts 209°
2026-04-30 21:03 38.12162 -0.71006 6336 ft 311 kts 224°
2026-04-30 21:04 38.10696 -0.73001 5677 ft 305 kts 229°
2026-04-30 21:04 38.09317 -0.74998 5077 ft 305 kts 228°
2026-04-30 21:04 38.06379 -0.78926 3689 ft 306 kts 225°
2026-04-30 21:05 38.04902 -0.80810 3031 ft 300 kts 224°
2026-04-30 21:05 38.03453 -0.82664 2552 ft 287 kts 225°
2026-04-30 21:05 38.02110 -0.84401 2495 ft 262 kts 225°
2026-04-30 21:05 38.00898 -0.85974 2503 ft 238 kts 225°
2026-04-30 21:06 37.99794 -0.87406 2521 ft 222 kts 225°
2026-04-30 21:06 37.98715 -0.88801 2515 ft 219 kts 225°
2026-04-30 21:06 37.97643 -0.90182 2506 ft 218 kts 225°
2026-04-30 21:06 37.96599 -0.91531 2503 ft 209 kts 225°
2026-04-30 21:07 37.95616 -0.92802 2505 ft 198 kts 225°
2026-04-30 21:07 37.94666 -0.94028 2499 ft 189 kts 225°
2026-04-30 21:07 37.93756 -0.95200 2498 ft 187 kts 225°
2026-04-30 21:07 37.92830 -0.96394 2494 ft 188 kts 225°
2026-04-30 21:08 37.91917 -0.97572 2492 ft 188 kts 225°
2026-04-30 21:08 37.91006 -0.98745 2499 ft 181 kts 225°
2026-04-30 21:08 37.90147 -0.99852 2506 ft 174 kts 224°
2026-04-30 21:08 37.89330 -1.00901 2496 ft 161 kts 224°
2026-04-30 21:09 37.88555 -1.01888 2492 ft 157 kts 224°
2026-04-30 21:09 37.87779 -1.02886 2452 ft 159 kts 225°
2026-04-30 21:09 37.87003 -1.03886 2240 ft 158 kts 225°
2026-04-30 21:09 37.86241 -1.04866 2035 ft 155 kts 225°
2026-04-30 21:10 37.85496 -1.05823 1831 ft 153 kts 225°
2026-04-30 21:10 37.84753 -1.06779 1628 ft 151 kts 225°
2026-04-30 21:10 37.84016 -1.07726 1428 ft 150 kts 225°
2026-04-30 21:10 37.83284 -1.08665 1229 ft 149 kts 225°
2026-04-30 21:11 37.82557 -1.09599 1030 ft 148 kts 225°
2026-04-30 21:11 37.81835 -1.10528 837 ft 148 kts 225°
2026-04-30 21:11 37.81110 -1.11438 660 ft 145 kts 225°
2026-04-30 21:11 37.80482 -1.12254 641 ft 104 kts 226°
2026-04-30 21:12 37.80135 -1.12699 643 ft 28 kts 225°
2026-04-30 21:12 37.79968 -1.12935 645 ft 38 kts 235°
2026-04-30 21:12 37.79893 -1.13195 648 ft 1 kts 265°
2026-04-30 21:13 37.79896 -1.13211 648 ft 5 kts 290°
2026-04-30 21:14 37.79924 -1.13235 649 ft 8 kts 354°
2026-04-30 21:14 37.80009 -1.13174 649 ft 15 kts 44°
2026-04-30 21:14 37.80092 -1.13085 649 ft 14 kts 14°
2026-04-30 21:14 37.80173 -1.13140 650 ft 12 kts 327°
2026-04-30 21:15 37.80244 -1.13120 651 ft 11 kts 41°
2026-04-30 21:15 37.80302 -1.13136 652 ft 8 kts 316°
2026-04-30 21:15 37.80316 -1.13152 652 ft 0 kts 316°
2026-04-30 21:15 37.80319 -1.13156 652 ft 0 kts 316°